Terug naar catalogus

ARIANE 42P+ DEB

LostGTO
NORAD 34185·DEBRIS·🇫🇷 France

Gelanceerd Oct 28, 1992 vanaf Guiana Space Centre

Loading…

TLE

VerouderdSource: Space-Track

Epoch: Dec 6, 2021, 01:07 UTC

1 34185U 92072R   21340.04698998  .00000499  00000-0  33983-2 0  9994
2 34185   7.1163 177.5463 7063642 262.5365  19.2913  2.41891403141015

Volg ARIANE 42P+ DEB in realtime met AllMySat

Download on the App Store